TimeEDT,TemperatureF,Dew PointF,Humidity,Sea Level PressureIn,VisibilityMPH,Wind Direction,Wind SpeedMPH,Gust SpeedMPH,PrecipitationIn,Events,Conditions,WindDirDegrees,DateUTC
12:52 AM,53.1,48.9,86,30.10,10.0,Calm,Calm,-,0.01,,Overcast,0,2013-10-05 04:52:00
1:52 AM,53.1,48.9,86,30.11,10.0,Calm,Calm,-,N/A,,Overcast,0,2013-10-05 05:52:00
2:52 AM,52.0,48.9,89,30.09,10.0,Calm,Calm,-,0.00,,Overcast,0,2013-10-05 06:52:00
3:52 AM,52.0,48.0,86,30.10,10.0,Calm,Calm,-,N/A,,Overcast,0,2013-10-05 07:52:00
4:52 AM,52.0,48.9,89,30.11,10.0,Calm,Calm,-,N/A,,Overcast,0,2013-10-05 08:52:00
5:52 AM,52.0,48.9,89,30.13,10.0,Calm,Calm,-,N/A,,Overcast,0,2013-10-05 09:52:00
6:52 AM,51.1,48.9,92,30.14,10.0,Calm,Calm,-,0.02,,Overcast,0,2013-10-05 10:52:00
7:52 AM,52.0,48.9,89,30.15,10.0,Calm,Calm,-,0.00,,Overcast,0,2013-10-05 11:52:00
8:52 AM,53.1,48.9,86,30.14,10.0,Calm,Calm,-,N/A,,Overcast,0,2013-10-05 12:52:00
9:52 AM,54.0,48.9,83,30.14,10.0,Calm,Calm,-,N/A,,Overcast,0,2013-10-05 13:52:00
10:52 AM,55.9,50.0,80,30.14,10.0,Calm,Calm,-,N/A,,Overcast,0,2013-10-05 14:52:00
11:52 AM,57.9,50.0,75,30.14,10.0,Calm,Calm,-,N/A,,Overcast,0,2013-10-05 15:52:00
12:52 PM,57.9,48.9,72,30.13,10.0,Calm,Calm,-,N/A,,Overcast,0,2013-10-05 16:52:00
1:52 PM,60.1,51.1,72,30.12,10.0,NNW,3.5,-,N/A,,Overcast,330,2013-10-05 17:52:00
2:52 PM,61.0,48.9,64,30.11,10.0,Calm,Calm,-,N/A,,Overcast,0,2013-10-05 18:52:00
3:52 PM,62.1,48.9,62,30.11,10.0,Calm,Calm,-,N/A,,Overcast,0,2013-10-05 19:52:00
4:52 PM,61.0,48.0,62,30.10,10.0,Calm,Calm,-,N/A,,Mostly Cloudy,0,2013-10-05 20:52:00
5:52 PM,55.9,50.0,80,30.13,10.0,Calm,Calm,-,N/A,,Scattered Clouds,0,2013-10-05 21:52:00
6:52 PM,54.0,48.9,83,30.13,10.0,Calm,Calm,-,N/A,,Overcast,0,2013-10-05 22:52:00
7:52 PM,50.0,46.9,89,30.14,10.0,Calm,Calm,-,N/A,,Clear,0,2013-10-05 23:52:00
8:52 PM,46.9,44.1,90,30.15,10.0,Calm,Calm,-,N/A,,Clear,0,2013-10-06 00:52:00
9:52 PM,46.0,43.0,89,30.17,10.0,Calm,Calm,-,N/A,,Clear,0,2013-10-06 01:52:00
10:52 PM,44.1,41.0,89,30.18,10.0,Calm,Calm,-,N/A,,Clear,0,2013-10-06 02:52:00
11:52 PM,44.1,41.0,89,30.19,10.0,Calm,Calm,-,N/A,,Clear,0,2013-10-06 03:52:00